ASA366 KLAS-KPAE

Flight info

Callsign ASA366
Flight time 2h 13m
Altitude 34000
Route JOHKR5 KENNO LOMIA LKV BTG OLM2
Aircraft B739/M-SDE2E3FGHIRWXY/LB1

Departure

Time 2026-05-07 20:48
Airport Harry Reid International Airport (KLAS)

Arrival

Time 2026-05-07 23:01
Airport Seattle Paine Field International Airport (KPAE)
Time Latitude Longitude Altitude Speed Heading
2026-05-07 20:07 36.08529 -115.14003 2091 ft 0 kts
2026-05-07 20:36 36.08524 -115.14003 2091 ft 4 kts
2026-05-07 20:36 36.08502 -115.14003 2091 ft 3 kts
2026-05-07 20:36 36.08477 -115.14003 2091 ft 4 kts 19°
2026-05-07 20:36 36.08463 -115.14019 2091 ft 4 kts 60°
2026-05-07 20:37 36.08453 -115.14043 2091 ft 1 kts 63°
2026-05-07 20:40 36.08456 -115.14035 2091 ft 3 kts 62°
2026-05-07 20:40 36.08464 -115.13999 2091 ft 6 kts 85°
2026-05-07 20:41 36.08465 -115.13935 2091 ft 9 kts 90°
2026-05-07 20:41 36.08465 -115.13854 2091 ft 10 kts 90°
2026-05-07 20:41 36.08465 -115.13766 2091 ft 11 kts 90°
2026-05-07 20:41 36.08465 -115.13676 2091 ft 10 kts 90°
2026-05-07 20:42 36.08465 -115.13589 2091 ft 10 kts 90°
2026-05-07 20:42 36.08465 -115.13502 2091 ft 10 kts 90°
2026-05-07 20:42 36.08439 -115.13426 2092 ft 10 kts 129°
2026-05-07 20:42 36.08391 -115.13367 2092 ft 10 kts 135°
2026-05-07 20:43 36.08340 -115.13304 2091 ft 10 kts 141°
2026-05-07 20:43 36.08274 -115.13292 2090 ft 10 kts 179°
2026-05-07 20:43 36.08253 -115.13292 2089 ft 10 kts 180°
2026-05-07 20:43 36.08171 -115.13292 2087 ft 13 kts 179°
2026-05-07 20:44 36.08074 -115.13291 2087 ft 14 kts 179°
2026-05-07 20:44 36.07996 -115.13292 2087 ft 10 kts 180°
2026-05-07 20:44 36.07927 -115.13292 2087 ft 11 kts 180°
2026-05-07 20:44 36.07845 -115.13278 2087 ft 12 kts 142°
2026-05-07 20:45 36.07828 -115.13179 2084 ft 12 kts 90°
2026-05-07 20:45 36.07827 -115.13060 2079 ft 18 kts 90°
2026-05-07 20:45 36.07829 -115.12874 2071 ft 23 kts 90°
2026-05-07 20:45 36.07828 -115.12681 2064 ft 22 kts 90°
2026-05-07 20:46 36.07828 -115.12492 2057 ft 22 kts 90°
2026-05-07 20:46 36.07829 -115.12317 2054 ft 16 kts 89°
2026-05-07 20:46 36.07790 -115.12208 2050 ft 14 kts 127°
2026-05-07 20:46 36.07730 -115.12127 2047 ft 11 kts 150°
2026-05-07 20:47 36.07658 -115.12123 2049 ft 9 kts 192°
2026-05-07 20:47 36.07643 -115.12190 2048 ft 11 kts 270°
2026-05-07 20:47 36.07643 -115.12446 2055 ft 61 kts 270°
2026-05-07 20:47 36.07642 -115.13251 2085 ft 123 kts 270°
2026-05-07 20:48 36.07641 -115.14543 2099 ft 173 kts 270°
2026-05-07 20:48 36.07651 -115.16148 2350 ft 198 kts 271°
2026-05-07 20:48 36.07676 -115.17880 3029 ft 204 kts 271°
2026-05-07 20:48 36.07696 -115.19660 3657 ft 206 kts 270°
2026-05-07 20:49 36.07568 -115.21390 4081 ft 207 kts 258°
2026-05-07 20:49 36.07296 -115.23126 4558 ft 204 kts 259°
2026-05-07 20:49 36.06944 -115.24839 4901 ft 207 kts 242°
2026-05-07 20:49 36.06020 -115.26191 5284 ft 208 kts 219°
2026-05-07 20:50 36.04675 -115.26987 5399 ft 223 kts 198°
2026-05-07 20:50 36.03173 -115.27629 5509 ft 239 kts 200°
2026-05-07 20:50 36.01552 -115.28352 5630 ft 257 kts 200°
2026-05-07 20:50 35.99809 -115.29141 5847 ft 274 kts 200°
2026-05-07 20:51 35.98720 -115.29676 6101 ft 278 kts 205°
2026-05-07 20:51 35.96995 -115.30775 6677 ft 280 kts 210°
2026-05-07 20:51 35.95285 -115.31932 7163 ft 285 kts 210°
2026-05-07 20:51 35.93526 -115.33109 7716 ft 288 kts 210°
2026-05-07 20:52 35.92371 -115.33895 8176 ft 286 kts 210°
2026-05-07 20:52 35.90626 -115.35054 8879 ft 284 kts 212°
2026-05-07 20:52 35.88873 -115.37417 9603 ft 285 kts 250°
2026-05-07 20:52 35.88525 -115.39014 10036 ft 285 kts 265°
2026-05-07 20:53 35.88491 -115.41430 10622 ft 287 kts 272°
2026-05-07 20:53 35.88566 -115.43907 11148 ft 293 kts 273°
2026-05-07 20:53 35.88649 -115.46445 11742 ft 296 kts 273°
2026-05-07 20:53 35.88722 -115.49062 11914 ft 315 kts 273°
2026-05-07 20:54 35.88786 -115.51853 12059 ft 334 kts 272°
2026-05-07 20:54 35.88846 -115.54773 12195 ft 352 kts 272°
2026-05-07 20:54 35.88905 -115.57877 12323 ft 369 kts 272°
2026-05-07 20:54 35.88966 -115.61084 12656 ft 378 kts 272°
2026-05-07 20:55 35.89025 -115.64353 13116 ft 382 kts 272°
2026-05-07 20:55 35.89086 -115.67649 13584 ft 388 kts 273°
2026-05-07 20:55 35.89147 -115.70998 14064 ft 391 kts 273°
2026-05-07 20:55 35.89209 -115.74366 14610 ft 393 kts 272°
2026-05-07 20:56 35.89268 -115.77707 15122 ft 395 kts 272°
2026-05-07 20:56 35.89328 -115.81121 15685 ft 397 kts 273°
2026-05-07 20:56 35.89388 -115.84551 16190 ft 401 kts 273°
2026-05-07 20:56 35.89446 -115.87960 16693 ft 404 kts 273°
2026-05-07 20:57 35.89593 -115.91448 17174 ft 406 kts 282°
2026-05-07 20:57 35.90549 -115.94701 17662 ft 403 kts 302°
2026-05-07 20:57 35.92267 -115.97421 18214 ft 400 kts 316°
2026-05-07 20:57 35.94225 -115.99831 18661 ft 403 kts 317°
2026-05-07 20:58 35.96245 -116.02260 19100 ft 405 kts 317°
2026-05-07 20:58 35.98275 -116.04704 19543 ft 407 kts 317°
2026-05-07 20:58 36.00284 -116.07139 19978 ft 410 kts 317°
2026-05-07 20:58 36.02327 -116.09634 20450 ft 412 kts 317°
2026-05-07 20:59 36.04387 -116.12122 20925 ft 414 kts 317°
2026-05-07 20:59 36.06435 -116.14657 21306 ft 418 kts 316°
2026-05-07 20:59 36.08465 -116.17188 21708 ft 420 kts 317°
2026-05-07 20:59 36.10537 -116.19770 22157 ft 421 kts 317°
2026-05-07 21:00 36.12616 -116.22359 22537 ft 424 kts 317°
2026-05-07 21:00 36.14680 -116.24926 22925 ft 426 kts 316°
2026-05-07 21:00 36.16785 -116.27549 23293 ft 429 kts 317°
2026-05-07 21:00 36.18907 -116.30186 23618 ft 432 kts 317°
2026-05-07 21:01 36.21007 -116.32796 23942 ft 434 kts 317°
2026-05-07 21:01 36.23152 -116.35466 24277 ft 435 kts 317°
2026-05-07 21:01 36.25293 -116.38135 24606 ft 437 kts 317°
2026-05-07 21:01 36.27420 -116.40789 24924 ft 439 kts 317°
2026-05-07 21:02 36.29598 -116.43478 25247 ft 441 kts 317°
2026-05-07 21:02 36.31827 -116.46138 25574 ft 443 kts 318°
2026-05-07 21:02 36.34039 -116.48744 25889 ft 445 kts 319°
2026-05-07 21:02 36.36304 -116.51412 26182 ft 447 kts 318°
2026-05-07 21:03 36.38566 -116.54091 26488 ft 449 kts 318°
2026-05-07 21:03 36.40805 -116.56757 26781 ft 451 kts 318°
2026-05-07 21:03 36.43080 -116.59472 27065 ft 454 kts 318°
2026-05-07 21:03 36.45373 -116.62196 27350 ft 456 kts 319°
2026-05-07 21:04 36.47683 -116.64842 27644 ft 457 kts 320°
2026-05-07 21:04 36.50052 -116.67506 27938 ft 459 kts 320°
2026-05-07 21:04 36.52426 -116.70176 28265 ft 460 kts 320°
2026-05-07 21:04 36.54796 -116.72861 28669 ft 459 kts 319°
2026-05-07 21:05 36.57150 -116.75542 29131 ft 457 kts 319°
2026-05-07 21:05 36.59493 -116.78219 29619 ft 455 kts 319°
2026-05-07 21:05 36.61804 -116.80858 30011 ft 455 kts 319°
2026-05-07 21:05 36.64149 -116.83535 30344 ft 455 kts 319°
2026-05-07 21:06 36.66495 -116.86201 30650 ft 455 kts 319°
2026-05-07 21:06 36.68819 -116.88863 31015 ft 453 kts 319°
2026-05-07 21:06 36.71117 -116.91498 31307 ft 453 kts 319°
2026-05-07 21:06 36.73458 -116.94152 31617 ft 452 kts 322°
2026-05-07 21:07 36.76045 -116.96271 31940 ft 448 kts 333°
2026-05-07 21:07 36.78821 -116.98056 32319 ft 446 kts 335°
2026-05-07 21:07 36.81614 -116.99775 32649 ft 445 kts 335°
2026-05-07 21:07 36.84358 -117.01463 32973 ft 444 kts 335°
2026-05-07 21:08 36.87123 -117.03191 33314 ft 443 kts 334°
2026-05-07 21:08 36.89868 -117.04934 33647 ft 442 kts 334°
2026-05-07 21:08 36.92614 -117.06701 33919 ft 442 kts 334°
2026-05-07 21:09 36.98079 -117.10250 33931 ft 443 kts 334°
2026-05-07 21:09 37.03538 -117.13811 33930 ft 440 kts 333°
2026-05-07 21:10 37.08929 -117.17331 33915 ft 437 kts 333°
2026-05-07 21:10 37.14359 -117.20880 33942 ft 442 kts 333°
2026-05-07 21:11 37.19832 -117.24461 33952 ft 446 kts 333°
2026-05-07 21:11 37.28077 -117.29867 33948 ft 446 kts 333°
2026-05-07 21:12 37.33383 -117.33854 33954 ft 446 kts 326°
2026-05-07 21:12 37.38378 -117.38492 33943 ft 446 kts 324°
2026-05-07 21:13 37.43343 -117.43180 33946 ft 445 kts 324°
2026-05-07 21:13 37.48343 -117.47800 33930 ft 443 kts 325°
2026-05-07 21:14 37.53309 -117.52335 33948 ft 443 kts 325°
2026-05-07 21:14 37.58321 -117.56901 33950 ft 443 kts 325°
2026-05-07 21:15 37.63295 -117.61440 33941 ft 443 kts 325°
2026-05-07 21:15 37.68302 -117.66019 33940 ft 443 kts 325°
2026-05-07 21:16 37.73281 -117.70582 33939 ft 443 kts 325°
2026-05-07 21:16 37.78289 -117.75180 33936 ft 444 kts 325°
2026-05-07 21:17 37.83271 -117.79761 33943 ft 444 kts 325°
2026-05-07 21:17 37.88266 -117.84362 33949 ft 445 kts 325°
2026-05-07 21:18 37.93257 -117.88971 33949 ft 445 kts 324°
2026-05-07 21:18 37.98270 -117.93604 33944 ft 444 kts 324°
2026-05-07 21:19 38.03253 -117.98216 33942 ft 444 kts 324°
2026-05-07 21:19 38.08223 -118.02825 33954 ft 443 kts 324°
2026-05-07 21:20 38.13207 -118.07456 33933 ft 442 kts 324°
2026-05-07 21:20 38.18159 -118.12066 33946 ft 441 kts 324°
2026-05-07 21:21 38.23107 -118.16679 33972 ft 441 kts 324°
2026-05-07 21:21 38.28043 -118.21288 33962 ft 441 kts 324°
2026-05-07 21:22 38.32984 -118.25910 33974 ft 442 kts 324°
2026-05-07 21:22 38.37924 -118.30540 33991 ft 442 kts 324°
2026-05-07 21:23 38.42893 -118.35205 34024 ft 442 kts 324°
2026-05-07 21:23 38.47824 -118.39843 34035 ft 442 kts 324°
2026-05-07 21:24 38.52789 -118.44520 34064 ft 442 kts 324°
2026-05-07 21:24 38.57729 -118.49183 34075 ft 443 kts 324°
2026-05-07 21:25 38.62666 -118.53850 34074 ft 443 kts 324°
2026-05-07 21:25 38.67640 -118.58561 33985 ft 442 kts 324°
2026-05-07 21:26 38.72571 -118.63239 33980 ft 442 kts 324°
2026-05-07 21:26 38.77527 -118.67949 33962 ft 442 kts 324°
2026-05-07 21:27 38.82449 -118.72635 33974 ft 442 kts 324°
2026-05-07 21:27 38.87392 -118.77350 33973 ft 442 kts 324°
2026-05-07 21:28 38.92317 -118.82056 33964 ft 441 kts 323°
2026-05-07 21:28 38.97224 -118.86753 33963 ft 439 kts 323°
2026-05-07 21:29 39.02099 -118.91428 33968 ft 438 kts 323°
2026-05-07 21:29 39.06964 -118.96101 33957 ft 437 kts 323°
2026-05-07 21:30 39.11852 -119.00805 33965 ft 438 kts 323°
2026-05-07 21:30 39.16718 -119.05496 33976 ft 439 kts 323°
2026-05-07 21:31 39.21714 -119.10058 33966 ft 440 kts 331°
2026-05-07 21:31 39.27347 -119.12925 33971 ft 440 kts 342°
2026-05-07 21:32 39.33215 -119.15245 33975 ft 441 kts 342°
2026-05-07 21:32 39.39107 -119.17593 33966 ft 442 kts 342°
2026-05-07 21:33 39.44958 -119.19964 33946 ft 442 kts 342°
2026-05-07 21:33 39.50793 -119.22353 33941 ft 442 kts 342°
2026-05-07 21:34 39.56666 -119.24765 33940 ft 442 kts 342°
2026-05-07 21:34 39.61547 -119.26775 33935 ft 440 kts 342°
2026-05-07 21:35 39.67336 -119.29159 33927 ft 435 kts 342°
2026-05-07 21:35 39.74044 -119.31927 33947 ft 436 kts 342°
2026-05-07 21:36 39.78927 -119.33945 33945 ft 440 kts 342°
2026-05-07 21:36 39.84753 -119.36356 33941 ft 443 kts 341°
2026-05-07 21:37 39.90608 -119.38788 33947 ft 439 kts 341°
2026-05-07 21:37 39.96420 -119.41202 33938 ft 436 kts 342°
2026-05-07 21:38 40.02166 -119.43592 33945 ft 434 kts 341°
2026-05-07 21:38 40.07932 -119.45994 33952 ft 434 kts 341°
2026-05-07 21:39 40.13670 -119.48391 33948 ft 435 kts 341°
2026-05-07 21:39 40.19471 -119.50818 33947 ft 436 kts 341°
2026-05-07 21:40 40.25250 -119.53242 33948 ft 437 kts 341°
2026-05-07 21:40 40.31029 -119.55671 33940 ft 438 kts 341°
2026-05-07 21:41 40.36823 -119.58107 33949 ft 438 kts 341°
2026-05-07 21:41 40.42632 -119.60557 33944 ft 438 kts 341°
2026-05-07 21:42 40.48445 -119.63011 33947 ft 438 kts 341°
2026-05-07 21:42 40.54222 -119.65454 33956 ft 438 kts 341°
2026-05-07 21:43 40.60039 -119.67918 33954 ft 438 kts 341°
2026-05-07 21:43 40.65804 -119.70366 33956 ft 437 kts 341°
2026-05-07 21:44 40.71601 -119.72830 33970 ft 436 kts 341°
2026-05-07 21:44 40.77353 -119.75282 33967 ft 436 kts 341°
2026-05-07 21:45 40.83131 -119.77749 33986 ft 436 kts 341°
2026-05-07 21:45 40.88903 -119.80217 33975 ft 435 kts 341°
2026-05-07 21:46 40.94650 -119.82678 33995 ft 435 kts 341°
2026-05-07 21:46 41.00432 -119.85161 33988 ft 435 kts 341°
2026-05-07 21:47 41.06157 -119.87624 34001 ft 435 kts 341°
2026-05-07 21:47 41.11941 -119.90116 34001 ft 435 kts 341°
2026-05-07 21:48 41.17680 -119.92593 34003 ft 436 kts 341°
2026-05-07 21:48 41.23467 -119.95095 34005 ft 436 kts 341°
2026-05-07 21:49 41.29223 -119.97589 34009 ft 437 kts 341°
2026-05-07 21:49 41.35029 -120.00110 34008 ft 438 kts 340°
2026-05-07 21:50 41.40813 -120.02625 34001 ft 439 kts 340°
2026-05-07 21:50 41.46635 -120.05161 34004 ft 439 kts 340°
2026-05-07 21:51 41.52412 -120.07683 34000 ft 438 kts 340°
2026-05-07 21:51 41.58185 -120.10207 33998 ft 437 kts 340°
2026-05-07 21:52 41.63981 -120.12746 34007 ft 437 kts 340°
2026-05-07 21:52 41.69733 -120.15272 33998 ft 436 kts 340°
2026-05-07 21:53 41.75516 -120.17815 34007 ft 436 kts 340°
2026-05-07 21:53 41.81261 -120.20346 34002 ft 436 kts 340°
2026-05-07 21:54 41.87037 -120.22896 34028 ft 436 kts 340°
2026-05-07 21:54 41.92788 -120.25440 34053 ft 436 kts 340°
2026-05-07 21:55 41.98572 -120.28004 34079 ft 437 kts 340°
2026-05-07 21:55 42.04324 -120.30557 34106 ft 437 kts 340°
2026-05-07 21:56 42.10113 -120.33133 34113 ft 436 kts 339°
2026-05-07 21:56 42.15842 -120.35686 34096 ft 434 kts 339°
2026-05-07 21:57 42.21571 -120.38244 33997 ft 431 kts 339°
2026-05-07 21:57 42.27234 -120.40778 33998 ft 429 kts 339°
2026-05-07 21:58 42.32911 -120.43324 33986 ft 428 kts 339°
2026-05-07 21:58 42.38547 -120.45855 33996 ft 428 kts 339°
2026-05-07 21:59 42.44186 -120.48393 33995 ft 429 kts 339°
2026-05-07 21:59 42.49832 -120.50985 33993 ft 430 kts 336°
2026-05-07 22:00 42.55347 -120.54229 33981 ft 431 kts 333°
2026-05-07 22:00 42.60795 -120.57583 34001 ft 432 kts 333°
2026-05-07 22:01 42.66296 -120.60962 33991 ft 434 kts 333°
2026-05-07 22:01 42.71787 -120.64311 33984 ft 434 kts 333°
2026-05-07 22:02 42.77312 -120.67675 33975 ft 433 kts 333°
2026-05-07 22:02 42.82788 -120.71012 33978 ft 432 kts 333°
2026-05-07 22:03 42.88257 -120.74352 33979 ft 431 kts 333°
2026-05-07 22:03 42.93733 -120.77703 33980 ft 429 kts 333°
2026-05-07 22:04 42.99168 -120.81025 33976 ft 427 kts 334°
2026-05-07 22:04 43.04602 -120.84362 33979 ft 427 kts 333°
2026-05-07 22:05 43.10011 -120.87701 33969 ft 428 kts 333°
2026-05-07 22:05 43.15458 -120.91065 33972 ft 429 kts 333°
2026-05-07 22:06 43.20896 -120.94427 33974 ft 430 kts 333°
2026-05-07 22:06 43.26338 -120.97797 33982 ft 431 kts 333°
2026-05-07 22:07 43.31789 -121.01179 33984 ft 432 kts 333°
2026-05-07 22:07 43.37275 -121.04589 33972 ft 432 kts 333°
2026-05-07 22:08 43.42753 -121.08002 33981 ft 431 kts 333°
2026-05-07 22:08 43.48208 -121.11406 33989 ft 430 kts 333°
2026-05-07 22:09 43.53640 -121.14804 33991 ft 429 kts 333°
2026-05-07 22:09 43.59062 -121.18202 33983 ft 429 kts 333°
2026-05-07 22:10 43.64514 -121.21626 33997 ft 428 kts 333°
2026-05-07 22:10 43.69906 -121.25019 33994 ft 427 kts 333°
2026-05-07 22:11 43.75333 -121.28439 34011 ft 429 kts 333°
2026-05-07 22:11 43.80752 -121.31863 34016 ft 429 kts 333°
2026-05-07 22:12 43.86199 -121.35311 34015 ft 429 kts 333°
2026-05-07 22:12 43.91620 -121.38749 34013 ft 428 kts 333°
2026-05-07 22:13 43.97008 -121.42173 34011 ft 428 kts 333°
2026-05-07 22:13 44.02430 -121.45625 34026 ft 428 kts 333°
2026-05-07 22:14 44.07856 -121.49085 34017 ft 428 kts 333°
2026-05-07 22:14 44.13249 -121.52536 34016 ft 429 kts 333°
2026-05-07 22:15 44.18689 -121.56023 34021 ft 430 kts 333°
2026-05-07 22:15 44.24125 -121.59513 34018 ft 431 kts 333°
2026-05-07 22:16 44.29597 -121.63033 34017 ft 432 kts 333°
2026-05-07 22:16 44.35035 -121.66538 34024 ft 432 kts 333°
2026-05-07 22:17 44.40282 -121.69927 34021 ft 432 kts 333°
2026-05-07 22:17 44.45725 -121.73450 34028 ft 432 kts 333°
2026-05-07 22:18 44.53903 -121.78756 34028 ft 432 kts 333°
2026-05-07 22:19 44.59371 -121.82314 34032 ft 432 kts 333°
2026-05-07 22:19 44.64816 -121.85865 34045 ft 433 kts 333°
2026-05-07 22:20 44.70267 -121.89425 34056 ft 434 kts 332°
2026-05-07 22:20 44.75757 -121.93020 34064 ft 435 kts 332°
2026-05-07 22:21 44.81229 -121.96612 34052 ft 436 kts 332°
2026-05-07 22:21 44.85821 -121.99635 34054 ft 437 kts 332°
2026-05-07 22:22 44.91354 -122.03262 34071 ft 436 kts 332°
2026-05-07 22:22 44.96829 -122.06883 34061 ft 436 kts 332°
2026-05-07 22:23 45.02273 -122.10487 34069 ft 435 kts 332°
2026-05-07 22:23 45.07747 -122.13970 34122 ft 431 kts 331°
2026-05-07 22:24 45.13146 -122.17740 34081 ft 431 kts 331°
2026-05-07 22:24 45.18557 -122.21352 34083 ft 431 kts 332°
2026-05-07 22:25 45.24011 -122.24959 34096 ft 431 kts 332°
2026-05-07 22:25 45.29427 -122.28563 34102 ft 431 kts 331°
2026-05-07 22:26 45.34853 -122.32195 34096 ft 432 kts 331°
2026-05-07 22:26 45.40311 -122.35860 34097 ft 432 kts 331°
2026-05-07 22:27 45.45732 -122.39507 34091 ft 433 kts 331°
2026-05-07 22:27 45.51192 -122.43189 34089 ft 433 kts 331°
2026-05-07 22:28 45.56634 -122.46866 34085 ft 432 kts 331°
2026-05-07 22:28 45.62041 -122.50527 34101 ft 432 kts 331°
2026-05-07 22:29 45.67491 -122.54226 34109 ft 432 kts 331°
2026-05-07 22:29 45.72898 -122.57902 34111 ft 432 kts 331°
2026-05-07 22:29 45.75693 -122.59555 34100 ft 437 kts 343°
2026-05-07 22:30 45.78696 -122.60302 34156 ft 439 kts 347°
2026-05-07 22:30 45.84748 -122.61680 34123 ft 440 kts 346°
2026-05-07 22:31 45.90756 -122.63140 34111 ft 439 kts 346°
2026-05-07 22:31 45.96803 -122.64645 34115 ft 439 kts 346°
2026-05-07 22:32 46.02793 -122.66139 34120 ft 439 kts 346°
2026-05-07 22:32 46.08864 -122.67656 33566 ft 449 kts 346°
2026-05-07 22:32 46.11909 -122.68419 33040 ft 446 kts 346°
2026-05-07 22:33 46.14968 -122.69186 32311 ft 445 kts 346°
2026-05-07 22:33 46.18029 -122.69955 31764 ft 440 kts 346°
2026-05-07 22:33 46.21014 -122.70705 31194 ft 437 kts 346°
2026-05-07 22:33 46.24004 -122.71459 30644 ft 433 kts 346°
2026-05-07 22:34 46.26972 -122.72208 30050 ft 430 kts 347°
2026-05-07 22:34 46.29917 -122.72953 29427 ft 427 kts 347°
2026-05-07 22:34 46.32803 -122.73683 28859 ft 423 kts 347°
2026-05-07 22:34 46.35696 -122.74415 28326 ft 418 kts 347°
2026-05-07 22:35 46.38565 -122.75143 27775 ft 415 kts 347°
2026-05-07 22:35 46.41371 -122.75856 27249 ft 411 kts 347°
2026-05-07 22:35 46.44188 -122.76572 26727 ft 408 kts 346°
2026-05-07 22:35 46.46986 -122.77285 26210 ft 405 kts 346°
2026-05-07 22:36 46.49735 -122.77985 25702 ft 402 kts 346°
2026-05-07 22:36 46.52490 -122.78688 25196 ft 400 kts 346°
2026-05-07 22:36 46.55197 -122.79379 24684 ft 398 kts 346°
2026-05-07 22:36 46.57929 -122.80077 24168 ft 396 kts 346°
2026-05-07 22:37 46.60646 -122.80772 23643 ft 395 kts 347°
2026-05-07 22:37 46.63355 -122.81466 23061 ft 393 kts 347°
2026-05-07 22:37 46.66010 -122.82146 22550 ft 390 kts 346°
2026-05-07 22:37 46.68679 -122.82830 22042 ft 387 kts 347°
2026-05-07 22:38 46.71328 -122.83510 21545 ft 384 kts 347°
2026-05-07 22:38 46.73965 -122.84188 21050 ft 381 kts 347°
2026-05-07 22:38 46.76546 -122.84853 20579 ft 379 kts 347°
2026-05-07 22:38 46.79149 -122.85523 20100 ft 376 kts 347°
2026-05-07 22:39 46.81728 -122.86188 19628 ft 374 kts 347°
2026-05-07 22:39 46.84267 -122.86844 19144 ft 373 kts 347°
2026-05-07 22:39 46.86820 -122.87504 18669 ft 372 kts 347°
2026-05-07 22:39 46.89369 -122.88163 18130 ft 371 kts 347°
2026-05-07 22:40 46.91895 -122.88817 17541 ft 372 kts 347°
2026-05-07 22:40 46.94429 -122.89440 17245 ft 364 kts 351°
2026-05-07 22:40 46.96937 -122.89133 16985 ft 362 kts 13°
2026-05-07 22:40 46.99223 -122.87611 16665 ft 360 kts 33°
2026-05-07 22:41 47.01122 -122.85332 16383 ft 355 kts 40°
2026-05-07 22:41 47.02960 -122.82919 16076 ft 351 kts 40°
2026-05-07 22:41 47.04786 -122.80527 15764 ft 349 kts 40°
2026-05-07 22:41 47.06576 -122.78209 15469 ft 347 kts 39°
2026-05-07 22:42 47.08393 -122.75879 15187 ft 345 kts 39°
2026-05-07 22:42 47.10204 -122.73566 14901 ft 343 kts 39°
2026-05-07 22:42 47.12004 -122.71266 14642 ft 342 kts 39°
2026-05-07 22:42 47.13803 -122.68964 14355 ft 341 kts 39°
2026-05-07 22:43 47.15569 -122.66701 14096 ft 341 kts 39°
2026-05-07 22:43 47.17364 -122.64399 13780 ft 341 kts 40°
2026-05-07 22:43 47.19146 -122.62112 13486 ft 338 kts 40°
2026-05-07 22:43 47.20907 -122.59849 13183 ft 332 kts 40°
2026-05-07 22:44 47.22608 -122.57662 13020 ft 323 kts 40°
2026-05-07 22:44 47.24267 -122.55526 12982 ft 309 kts 40°
2026-05-07 22:44 47.25851 -122.53483 12968 ft 296 kts 40°
2026-05-07 22:44 47.27374 -122.51518 12973 ft 284 kts 40°
2026-05-07 22:45 47.28850 -122.49614 13002 ft 292 kts 40°
2026-05-07 22:45 47.30467 -122.47622 13001 ft 308 kts 31°
2026-05-07 22:45 47.32464 -122.46627 13012 ft 306 kts
2026-05-07 22:45 47.34608 -122.46619 13000 ft 306 kts 357°
2026-05-07 22:46 47.36705 -122.46754 12820 ft 302 kts 355°
2026-05-07 22:46 47.38798 -122.46938 12467 ft 301 kts 355°
2026-05-07 22:46 47.40894 -122.47135 12087 ft 301 kts 355°
2026-05-07 22:46 47.42951 -122.47337 11854 ft 298 kts 355°
2026-05-07 22:47 47.45019 -122.47548 11607 ft 297 kts 355°
2026-05-07 22:47 47.47086 -122.47763 11366 ft 298 kts 355°
2026-05-07 22:47 47.49158 -122.47985 11138 ft 299 kts 355°
2026-05-07 22:47 47.51238 -122.48218 10882 ft 299 kts 355°
2026-05-07 22:48 47.53304 -122.48453 10639 ft 297 kts 355°
2026-05-07 22:48 47.55343 -122.48689 10397 ft 295 kts 355°
2026-05-07 22:48 47.57394 -122.48929 10167 ft 293 kts 355°
2026-05-07 22:48 47.59325 -122.49158 9931 ft 292 kts 355°
2026-05-07 22:49 47.61337 -122.49398 9672 ft 291 kts 355°
2026-05-07 22:49 47.63365 -122.49640 9414 ft 291 kts 355°
2026-05-07 22:49 47.65304 -122.49871 9168 ft 290 kts 355°
2026-05-07 22:49 47.67314 -122.50109 8906 ft 289 kts 355°
2026-05-07 22:50 47.69320 -122.50346 8661 ft 287 kts 355°
2026-05-07 22:50 47.71304 -122.50580 8410 ft 286 kts 355°
2026-05-07 22:50 47.73284 -122.50813 8167 ft 284 kts 355°
2026-05-07 22:50 47.75228 -122.51043 7917 ft 281 kts 355°
2026-05-07 22:51 47.77180 -122.51274 7670 ft 279 kts 355°
2026-05-07 22:51 47.79113 -122.51503 7424 ft 277 kts 355°
2026-05-07 22:51 47.81034 -122.51729 7184 ft 276 kts 355°
2026-05-07 22:51 47.82930 -122.51951 6956 ft 276 kts 355°
2026-05-07 22:52 47.84846 -122.52173 6721 ft 275 kts 355°
2026-05-07 22:52 47.86767 -122.52403 6469 ft 278 kts 355°
2026-05-07 22:52 47.88709 -122.52643 6223 ft 281 kts 355°
2026-05-07 22:52 47.90666 -122.52884 5969 ft 280 kts 355°
2026-05-07 22:53 47.92582 -122.53112 5714 ft 278 kts 357°
2026-05-07 22:53 47.94493 -122.52799 5451 ft 274 kts 13°
2026-05-07 22:53 47.96335 -122.52097 5209 ft 271 kts 14°
2026-05-07 22:53 47.98145 -122.51350 4964 ft 267 kts 15°
2026-05-07 22:54 47.99907 -122.50602 4728 ft 263 kts 15°
2026-05-07 22:54 48.01662 -122.49836 4471 ft 260 kts 17°
2026-05-07 22:54 48.03391 -122.49047 4272 ft 257 kts 15°
2026-05-07 22:54 48.05081 -122.48344 4029 ft 253 kts 13°
2026-05-07 22:55 48.06739 -122.47638 4008 ft 240 kts 15°
2026-05-07 22:55 48.08308 -122.46960 3992 ft 227 kts 15°
2026-05-07 22:55 48.09793 -122.46305 3986 ft 220 kts 15°
2026-05-07 22:55 48.11171 -122.45375 3852 ft 224 kts 40°
2026-05-07 22:56 48.12032 -122.43480 3751 ft 223 kts 75°
2026-05-07 22:56 48.12244 -122.41178 3664 ft 224 kts 85°
2026-05-07 22:56 48.12356 -122.38822 3534 ft 226 kts 92°
2026-05-07 22:56 48.11923 -122.36580 3374 ft 225 kts 125°
2026-05-07 22:57 48.10901 -122.34875 3311 ft 221 kts 140°
2026-05-07 22:57 48.09738 -122.33382 3235 ft 220 kts 140°
2026-05-07 22:57 48.08576 -122.31894 3135 ft 221 kts 140°
2026-05-07 22:57 48.07426 -122.30417 3037 ft 213 kts 140°
2026-05-07 22:58 48.06252 -122.29106 2987 ft 208 kts 158°
2026-05-07 22:58 48.04897 -122.28918 3018 ft 192 kts 187°
2026-05-07 22:58 48.03603 -122.28926 2858 ft 182 kts 173°
2026-05-07 22:58 48.02354 -122.28782 2628 ft 177 kts 180°
2026-05-07 22:59 48.01156 -122.28777 2422 ft 171 kts 180°
2026-05-07 22:59 47.99973 -122.28759 2220 ft 164 kts 179°
2026-05-07 22:59 47.98863 -122.28735 1950 ft 154 kts 179°
2026-05-07 22:59 47.97777 -122.28710 1756 ft 156 kts 179°
2026-05-07 23:00 47.96711 -122.28687 1529 ft 154 kts 179°
2026-05-07 23:00 47.95652 -122.28664 1301 ft 151 kts 179°
2026-05-07 23:00 47.94613 -122.28645 1080 ft 150 kts 179°
2026-05-07 23:00 47.93562 -122.28624 875 ft 151 kts 179°
2026-05-07 23:01 47.92512 -122.28596 674 ft 150 kts 179°
2026-05-07 23:01 47.91499 -122.28573 566 ft 134 kts 179°
2026-05-07 23:01 47.90799 -122.28558 569 ft 57 kts 179°
2026-05-07 23:01 47.90610 -122.28530 568 ft 17 kts 135°
2026-05-07 23:02 47.90636 -122.28410 570 ft 10 kts 44°
2026-05-07 23:02 47.90691 -122.28344 572 ft 10 kts 21°
2026-05-07 23:02 47.90745 -122.28323 570 ft 7 kts 47°
2026-05-07 23:02 47.90757 -122.28254 568 ft 7 kts 82°
2026-05-07 23:03 47.90760 -122.28195 566 ft 0 kts 89°
2026-05-07 23:04 47.90759 -122.28181 566 ft 4 kts 93°
2026-05-07 23:04 47.90757 -122.28102 566 ft 7 kts 90°
2026-05-07 23:05 47.90757 -122.28023 566 ft 8 kts 90°
2026-05-07 23:05 47.90771 -122.27982 567 ft 6 kts 36°
2026-05-07 23:05 47.90797 -122.27940 566 ft 6 kts 60°
2026-05-07 23:05 47.90808 -122.27908 568 ft 2 kts 63°
2026-05-07 23:06 47.90811 -122.27899 568 ft 0 kts 63°